Location: Kaw?czyn
(50.5796°N, 20.3450°E)
Time: 04:51:32
(UTC+00:00)

Daily predictions for brighter satellites

Satellite Brightness Start Highest point End
(mag) Time Altitude Azimuth Time Altitude Azimuth Time Altitude Azimuth
Cosmos 1766 Rocket 4.1 00:04:02 10° N 00:07:52 55° NE 00:07:52 55° NE
Cosmos 44 Rocket 4.4 00:10:18 36° ESE 00:10:18 36° ESE 00:14:51 10° NE
Cosmos 2360 Rocket 2.0 00:09:55 80° SSE 00:10:10 84° ESE 00:15:51 10° NNE
Aureole 3 Rocket 3.8 00:06:21 10° NNW 00:10:25 47° NW 00:10:25 47° NW
Lacrosse 4 Rocket 2.8 00:15:02 30° NNW 00:15:02 30° NNW 00:18:14 10° NNE
NOSS 3-4 (A) 3.4 00:16:26 56° SE 00:16:45 57° SE 00:22:40 10° NE
NOSS 3-4 (C) 3.4 00:16:29 56° SE 00:16:48 56° SE 00:22:43 10° NE
Cosmos 1570 Rocket 4.4 00:17:05 49° WNW 00:17:17 49° WNW 00:22:22 10° NNE
USA 32 4.3 00:17:37 55° WNW 00:17:37 55° WNW 00:22:37 10° N
Cosmos 2278 Rocket 3.7 00:12:56 10° NNW 00:18:08 35° NE 00:23:18 10° ESE
Cosmos 2322 Rocket 2.2 00:19:32 64° W 00:20:03 68° WNW 00:25:41 10° NNE
Cosmos 1743 3.8 00:16:58 10° N 00:19:41 41° NNE 00:19:41 41° NNE
Cosmos 773 Rocket 3.9 00:20:39 72° SE 00:20:55 74° ESE 00:26:12 10° NNE
BlueWalker 3 3.3 00:23:37 35° ENE 00:23:37 35° ENE 00:26:01 10° E
IDEFIX/ARIANE 42P 2.7 00:19:53 10° NNE 00:25:03 63° ESE 00:25:44 57° SE
Cosmos 1933 4.5 00:27:42 36° NNW 00:27:42 36° NNW 00:30:26 10° N
Cosmos 2219 Rocket 2.3 00:27:22 57° SSE 00:28:05 63° ESE 00:33:37 10° NE
MSX 4.1 00:23:52 10° NNE 00:29:37 60° ESE 00:31:05 46° SSE
Okean 3 Rocket 3.9 00:28:34 10° N 00:33:05 62° ENE 00:33:39 57° ESE
Cosmos 1536 4.4 00:31:06 10° N 00:34:35 31° ENE 00:35:46 25° ESE
Cosmos 1782 4.4 00:36:00 25° NW 00:36:00 25° NW 00:38:19 10° N
SL-16 R/B 3.0 00:35:17 34° W 00:36:35 39° NW 00:41:55 10° NNE
H-2A R/B 3.6 00:34:06 10° NNE 00:37:46 69° N 00:37:46 69° N
COBE Rocket 4.1 00:34:22 10° NNE 00:39:00 57° E 00:39:39 52° SE
USA 267 4.1 00:42:48 31° W 00:42:48 31° W 00:46:43 10° WNW
Meteor 1-28 Rocket 3.8 00:45:44 51° E 00:45:52 51° ENE 00:49:27 10° N
Meteor 1-26 Rocket 4.3 00:48:58 54° WSW 00:49:58 63° WNW 00:55:45 10° N
Cosmos 1634 Rocket 4.3 00:45:04 10° NNW 00:51:06 48° W 00:52:05 45° WSW
ADEOS II 2.5 00:46:14 10° NNE 00:51:25 56° ESE 00:53:12 38° SSE
Cosmos 2180 Rocket 4.5 00:46:01 10° N 00:52:28 88° W 00:55:20 36° S
FENGYUN 3A 4.2 00:48:03 10° NNE 00:53:23 52° E 00:55:38 32° SSE
Meteor 1-14 Rocket 4.0 00:49:05 10° NNW 00:54:38 78° W 00:56:11 49° S
Cosmos 1726 2.9 00:51:53 10° N 00:54:44 42° ENE 00:54:44 42° ENE
SL-16 R/B 2.6 00:51:35 19° SSE 00:56:12 78° ENE 01:02:27 10° NNW
Meteor 2-6 Rocket 4.3 00:56:37 44° S 00:58:40 86° E 01:04:38 10° NNE
ATLAS 5 CENTAUR R/B 4.0 00:55:49 10° NNW 00:59:32 25° NNE 01:03:53 10° E
Cosmos 1461 3.4 00:57:53 10° NNW 01:01:42 52° NE 01:05:26 10° ESE
CZ-2D R/B 2.0 00:57:26 10° NNE 01:02:48 85° WNW 01:04:20 49° SSW
Cosmos 2142 Rocket 4.4 00:56:44 10° NNW 01:02:48 65° W 01:04:47 43° SSW
RESURS DK-1 3.7 01:06:15 27° SE 01:07:12 30° ESE 01:10:47 10° NE
Cosmos 1900 4.5 01:09:26 10° NW 01:14:21 49° WSW 01:14:28 49° SW
Cosmos 1842 Rocket 3.5 01:13:45 60° SW 01:14:30 76° WNW 01:18:58 10° N
IRAS Rocket 4.3 01:10:00 10° NNE 01:15:40 75° ESE 01:18:19 33° S
Cosmos 1408 Rocket 3.4 01:11:25 10° N 01:15:44 87° W 01:16:56 48° S
Meteor 1-27 Rocket 4.5 01:14:33 18° SSE 01:18:39 51° E 01:24:09 10° NNE
Cosmos 1943 Rocket 3.0 01:13:38 10° NNW 01:19:12 52° NE 01:24:43 10° SE
COSMOS 2428 2.7 01:22:41 36° SSW 01:25:07 82° ESE 01:30:51 10° NNE
Meteor 1-10 Rocket 4.3 01:23:34 29° S 01:26:44 86° E 01:32:43 10° NNE
Meteor 1-11 Rocket 3.6 01:24:23 10° NNW 01:30:01 79° W 01:34:01 19° S
Cosmos 1805 Rocket 3.5 01:27:46 10° N 01:32:09 85° E 01:34:51 23° SSE
UNK 3.6 01:29:18 23° SSE 01:32:10 84° WSW 01:36:49 10° NNW
CZ-2C R/B 3.1 01:31:22 36° SW 01:32:39 41° W 01:37:45 10° NNW
Cosmos 1500 Rocket 3.5 01:28:19 10° NNW 01:32:48 79° W 01:34:59 30° S
Cosmos 2237 Rocket 3.1 01:29:23 18° S 01:33:15 43° ESE 01:38:35 10° NE
CZ-2C R/B 3.0 01:31:56 10° N 01:36:58 70° WNW 01:39:23 32° SSW
Cosmos 1867 3.7 01:32:14 10° NW 01:37:33 51° WSW 01:42:48 10° SSE
NPP 4.4 01:32:36 10° N 01:37:34 39° WNW 01:39:31 29° WSW
NOSS 2-2 (C) 3.7 01:33:24 10° NW 01:37:36 89° WSW 01:43:32 10° SE
BREEZE-M DEB (TANK) 2.1 01:37:59 43° SE 01:37:59 43° SE 01:39:45 10° E
AQUA 3.8 01:34:11 10° N 01:38:55 70° WNW 01:40:52 35° SW
Cosmos 2221 4.0 01:40:19 21° WNW 01:40:43 21° WNW 01:44:00 10° NNW
Cosmos 2322 3.8 01:38:31 32° SW 01:41:10 67° WNW 01:46:54 10° NNE
Meteor 2-9 Rocket 4.0 01:37:42 10° NNW 01:43:05 81° W 01:48:33 10° S
Resurs 1-4 Rocket 2.8 01:38:54 10° N 01:43:49 40° WNW 01:45:54 28° WSW
USA 215 3.8 01:40:53 10° ENE 01:47:14 54° N 01:53:22 11° W
Lacrosse 5 2.3 01:44:47 24° W 01:47:43 57° NNW 01:52:46 10° ENE
ALOS 2.2 01:43:20 10° NNE 01:48:00 85° WNW 01:50:36 26° SSW
Nadezhda 4 Rocket 4.0 01:45:46 26° SSW 01:49:17 63° WNW 01:55:23 10° N
Cosmos 2333 Rocket 3.5 01:46:53 19° W 01:49:50 29° NW 01:54:45 10° NNE
Cosmos 44 Rocket 3.9 01:48:57 27° WSW 01:51:32 51° NW 01:56:34 10° NE
Cosmos 2360 Rocket 3.7 01:51:39 15° W 01:54:52 25° NW 01:59:28 10° NNE
NOSS 0 Rocket 3.9 01:52:16 22° SSW 01:56:23 82° ESE 02:02:34 10° NNE
Cosmos 1733 2.9 01:53:45 10° NNW 01:57:22 73° W 01:59:42 20° S
NOSS 3-1 (C) 4.5 01:51:25 10° NW 01:58:17 63° NE 02:06:45 10° ESE
Sich 1 3.1 01:54:43 10° NNW 01:58:51 52° W 02:01:15 23° SSW
BlueWalker 3 1.9 01:58:05 20° WNW 02:00:32 61° SSW 02:04:18 10° SE
Cosmos 1428 Rocket 4.5 01:55:47 18° SSW 02:00:39 75° W 02:06:57 10° N
Cosmos 2278 Rocket 2.3 01:56:56 10° NW 02:02:27 52° WSW 02:07:56 10° S
YAOGAN 6 3.9 02:00:11 10° NNE 02:03:13 34° E 02:06:15 10° SSE
Cosmos 2344 4.1 01:55:20 10° NW 02:03:35 60° SW 02:14:56 10° SSE
IDEFIX/ARIANE 42P 3.9 02:00:06 10° N 02:04:11 24° WNW 02:06:30 18° W
Cosmos 2322 Rocket 4.1 02:01:19 10° WNW 02:05:11 19° NW 02:09:08 10° N
Cosmos 1743 Rocket 3.8 02:02:37 10° NNW 02:06:46 46° W 02:09:29 20° SSW
NOSS 3-4 (A) 4.1 02:03:50 17° W 02:07:50 42° NNW 02:13:52 10° NE
NOSS 3-4 (C) 4.1 02:03:53 18° W 02:07:53 43° NNW 02:13:55 10° NE
Cosmos 1553 Rocket 4.2 02:02:56 10° N 02:09:17 74° E 02:15:28 10° SSE
Cosmos 1536 3.8 02:07:17 10° NNW 02:10:30 25° W 02:11:04 24° WSW
Cosmos 1538 Rocket 4.3 02:07:18 23° SW 02:10:33 55° WNW 02:15:49 10° NNE
Cosmos 1340 Rocket 3.3 02:07:54 10° S 02:11:38 57° E 02:15:27 10° NNE
Cosmos 1680 Rocket 4.0 02:06:41 11° S 02:11:45 60° ESE 02:16:59 10° NNE
Cosmos 2219 Rocket 3.3 02:09:03 17° W 02:12:26 30° NW 02:17:22 10° NNE
Cosmos 1633 Rocket 3.4 02:09:43 10° N 02:14:03 68° ENE 02:18:23 10° SSE
SWAS 4.3 02:09:59 10° NNW 02:14:13 79° WSW 02:18:24 10° SSE
Cosmos 1805 3.0 02:11:59 10° NNW 02:15:43 82° W 02:19:25 10° S
EO 1 Delta rocket 3.8 02:11:25 10° N 02:16:09 69° WNW 02:20:08 14° SSW
Gbstr 26 Del rocket 2.7 02:13:49 23° WSW 02:16:17 83° SSE 02:20:05 10° ENE
Meteor 2-10 4.4 02:11:16 10° NNW 02:16:40 51° W 02:22:09 10° SSW
Cosmos 1420 Rocket 3.9 02:11:56 10° NNW 02:17:12 82° WSW 02:22:28 10° SSE
GP-B 3.9 02:14:20 10° NNW 02:18:19 33° W 02:20:36 20° SW
Cosmos 2056 Rocket 3.6 02:15:22 10° NNW 02:20:47 89° WSW 02:26:12 10° SSE
ATLAS 3B R/B 3.9 02:13:13 10° NW 02:20:47 53° NE 02:28:23 10° ESE
METEOR-M 4.1 02:15:36 10° NNE 02:20:59 90° WNW 02:26:19 10° SSW
SL-16 R/B 4.4 02:19:38 10° NW 02:22:24 14° NNW 02:25:10 10° N
SL-16 R/B 3.7 02:18:39 10° S 02:23:40 34° ESE 02:28:44 10° NE
Cosmos 1726 3.9 02:26:41 10° WNW 02:27:30 12° WNW 02:27:30 12° WNW
BREEZE-M DEB (TANK) 3.9 02:27:07 13° W 02:30:20 73° S 02:43:09 10° ESE
ADEOS II 3.3 02:26:23 10° N 02:30:44 27° WNW 02:34:05 15° WSW
CZ-2C R/B 2.6 02:25:36 10° NNE 02:30:48 85° ESE 02:35:59 10° SSW
PAYLOAD A 4.1 02:26:12 10° NNE 02:31:13 76° ESE 02:36:01 10° S
Okean 1 4.3 02:29:45 18° WSW 02:31:36 27° WNW 02:34:55 10° N
Cosmos 1092 Rocket 4.1 02:26:22 11° SSW 02:32:10 57° WNW 02:38:14 10° N
Cosmos 1624 Rocket 3.9 02:28:01 10° NNW 02:33:15 73° WSW 02:38:26 10° SSE
Cosmos 1461 3.9 02:36:45 10° WNW 02:39:41 21° WSW 02:42:35 10° SSW
Cosmos 2026 Rocket 4.3 02:34:00 10° SSW 02:40:07 52° WNW 02:46:20 10° N
SL-16 R/B 3.7 02:36:39 13° SW 02:40:27 22° W 02:45:10 10° NW
CZ-2D R/B 3.9 02:38:41 10° NNW 02:42:06 17° NW 02:45:31 10° W
Iridium 51 4.4 02:38:52 10° S 02:42:11 63° E 02:45:30 10° N
Kosmos-1783 2.6 02:42:15 24° W 02:42:53 38° NW 02:44:51 10° NE
ATLAS 5 CENTAUR R/B 2.1 02:39:17 10° NW 02:44:03 81° NE 02:50:00 10° SE
Cosmos 1151 Rocket 3.6 02:40:50 13° SW 02:44:22 38° WNW 02:48:26 10° N
RESURS DK-1 3.2 02:41:52 14° WSW 02:44:53 35° NW 02:48:40 10° NNE
Cosmos 923 Rocket 4.2 02:42:04 11° SW 02:47:01 59° WNW 02:52:16 10° NNE
Envisat 3.2 02:43:23 10° N 02:48:21 56° WNW 02:53:18 10° SSW
Cosmos 1766 3.1 02:51:38 10° N 02:55:21 88° W 02:59:01 10° S
Cosmos 921 Rocket 3.0 02:51:07 10° SSW 02:55:21 89° SE 02:59:44 10° NNE
Meteor 1-18 Rocket 4.2 02:52:04 10° SSW 02:57:42 76° WNW 03:03:29 10° N
Cosmos 1515 Rocket 4.0 02:54:07 10° S 02:58:31 68° E 03:02:58 10° NNE
Cosmos 1674 3.9 02:55:57 10° SSE 02:59:10 39° E 03:02:25 10° NNE
Cosmos 1975 3.5 02:55:53 10° NNW 02:59:20 32° W 03:02:48 10° SSW
Cosmos 1470 Rocket 3.5 02:55:33 10° NNW 02:59:54 67° W 03:04:17 10° S
Cosmos 1371 Rocket 4.4 02:57:01 10° NW 03:01:57 42° WSW 03:06:53 10° S
Cosmos 1943 Rocket 2.9 02:57:44 10° NW 03:02:43 32° WSW 03:07:40 10° SSW
Cosmos 1340 3.2 03:00:05 10° NNW 03:03:09 30° W 03:06:12 10° SSW
Thor Agena Rocket 3.7 02:59:41 10° N 03:04:38 56° WNW 03:09:32 10° SW
Cosmos 1066 Rocket 4.2 02:59:32 10° S 03:04:55 86° E 03:10:27 10° NNE
ATLAS 2AS CENTAUR R/B 3.2 02:59:38 10° SSW 03:07:01 70° SE 03:14:06 10° NE
Meteor 2-4 Rocket 3.9 03:02:19 10° SSW 03:07:36 54° WNW 03:13:04 10° N
H-2A R/B 2.6 03:03:29 10° NNE 03:08:25 62° ESE 03:13:27 10° S
COSMOS 2428 4.1 03:05:22 10° W 03:10:02 25° NW 03:14:44 10° NNE
Cosmos 1484 Rocket 3.0 03:06:47 10° NNE 03:10:24 68° ESE 03:13:58 10° S
Cosmos 1626 2.0 03:08:18 10° SSW 03:11:32 53° WNW 03:14:48 10° N
Cosmos 2297 3.7 03:06:23 10° NNW 03:12:10 81° WSW 03:17:55 10° SSE
Cosmos 2237 Rocket 2.9 03:12:00 10° WSW 03:17:21 41° NW 03:22:45 10° NNE
